Flag Weather past 2 weeks in Hohhot, Inner Mongolia, China

Now
32 °F

Passing clouds.


Feels Like: 29 °F
Forecast: 25 / 42 °F
Wind: 3 mph from Northeast

Location: Hohhot Airport

Current Time: Nov 28, 2014 at 4:33:56 PM

Latest Report: Nov 28, 2014 at 4:00 PM


Visibility: 4 mi

Pressure: 30.01 "Hg

Humidity: 75%

Dew point: 25 °F

Location of HohhotLocation

Historic Weather in Hohhot — Graph

°F

Hohhot temperature yesterday

Maximum temperature yesterday: 34 °F (at 3:00 PM)
Minimum temperature yesterday: 18 °F (at 11:00 PM)
Average temperature yesterday: 25 °F

Past Weeks' High & Low Weather Summary

 TemperatureHumidityPressure
High45 °F (Nov 19, 2:00 PM)100% (Nov 16, 8:00 AM)30.45 "Hg (Nov 16, 8:00 AM)
Low12 °F (Nov 17, 7:00 AM)20% (Nov 23, 4:00 PM)29.83 "Hg (Nov 25, 9:00 PM)
Average28 °F63%30.17 "Hg
* Reported Nov 13 3:00 PM — Nov 28 3:00 PM, Hohhot, Weather by CustomWeather, © 2014

Note: Actual official high and low records may vary slightly from our data, if they occured in-between our weather recording intervals... More about our weather records

Advertising

Hohhot weather history for previous 24 hours

 ConditionsComfort  
Time TempWeatherWind HumidityBarometerVisibility
3:00 PM
Nov 28
32 °FIce fog.1 mph75%30.01 "Hg3 mi
2:00 PM30 °FLight snow. Ice fog.3 mph86%30.04 "Hg3 mi
1:00 PM27 °FLight snow. Ice fog.1 mph93%30.07 "Hg2 mi
12:00 PM27 °FLight snow. Ice fog.3 mph86%30.07 "Hg2 mi
11:00 AM27 °FScattered clouds.3 mph80%30.09 "Hg4 mi
10:00 AM23 °FScattered clouds.3 mph86%30.12 "Hg5 mi
9:00 AM18 °FClear.3 mph93%30.09 "Hg5 mi
8:00 AM14 °FClear.3 mph85%30.09 "Hg4 mi
7:00 AM12 °FClear.8 mph85%30.09 "Hg5 mi
6:00 AM12 °FClear.3 mph85%30.07 "Hg5 mi
5:00 AM14 °FClear.3 mph85%30.07 "Hg5 mi
4:00 AM16 °FClear.6 mph86%30.07 "Hg5 mi
3:00 AM14 °FClear.6 mph85%30.09 "Hg5 mi
2:00 AM16 °FClear.1 mph86%30.09 "Hg5 mi
1:00 AM16 °FClear.6 mph86%30.09 "Hg5 mi
12:00 AM18 °FClear.6 mph86%30.12 "Hg5 mi
11:00 PM
Nov 27
18 °FClear.3 mph86%30.12 "Hg5 mi
10:00 PM21 °FClear.6 mph80%30.12 "Hg4 mi
9:00 PM21 °FClear.6 mph80%30.12 "Hg4 mi
8:00 PM25 °FIce fog.No wind74%30.12 "Hg3 mi
7:00 PM25 °FHaze.3 mph74%30.09 "Hg3 mi
6:00 PM28 °FClear.3 mph64%30.09 "Hg4 mi
5:00 PM30 °FPassing clouds.6 mph59%30.07 "Hg4 mi
4:00 PM32 °FScattered clouds.6 mph47%30.07 "Hg4 mi
Weather by CustomWeather, © 2014

See weather overviewHow to use our weather pages